Snowfall_Accumulation
0.0 0.0 0.0 0.0 0.0 0.0 0.0 0.0 0.0 0.0 0.0 0.0 0.0 0.0 0.0 0.0 0.0 0.0 0.0 0.0 0.0 0.0 0.0 0.0 0.0 0.0 0.0 0.0 0.0 0.0 0.0 0.0 0.0 0.0 0.0 0.0 0.0 0.0 0.0 0.0 0.0 0.0 0.0 0.0
0.0 0.0 0.0 0.0 0.0 0.0 0.0 0.0 0.0 0.0 0.0 0.0 0.0 0.0 0.0 0.0 0.0 0.0 0.0 0.0 0.0 0.0 0.0 0.0 0.0 0.0 0.0 0.0 0.0 0.0 0.0 0.0 0.0 0.0 0.0 0.0 0.0 0.0 0.0 0.0 0.0 0.0 0.0 0.0
0.0 0.0 0.0 0.0 0.0 0.0 0.0 0.0 0.0 0.0 0.0 0.0 0.0 0.0 0.0 0.0 0.0 0.0 0.0 0.0 0.0 0.0 0.0 0.0 0.0 0.0 0.0 0.0 0.0 0.0 0.0 0.0 0.0 0.0 0.0 0.0 0.0 0.0 0.0 0.0 0.0 0.0 0.0 0.0
0.0 0.0 0.0 0.0 0.0 0.0 0.0 0.0 0.0 0.0 0.0 0.0 0.0 0.0 0.0 0.0 0.0 0.0 0.0 0.0 0.0 0.0 0.0 0.0 0.0 0.0 0.0 0.0 0.0 0.0 0.0 0.0 0.0 0.0 0.0 0.0 0.0 0.0 0.0 0.0 0.0 0.0 0.0 0.0
0.0 0.0 0.0 0.0 0.0 0.0 0.0 0.0 0.0 0.0 0.0 0.0 0.0 0.0 0.0 0.0 0.0 0.0 0.0 0.0 0.0 0.0 0.0 0.0 0.0 0.0 0.0 0.0 0.0 0.0 0.0 0.0 0.0 0.0 0.0 0.0 0.0 0.0 0.0 0.0 0.0 0.0 0.0 0.0
0.0 0.0 0.0 0.0 0.0 0.0 0.0 0.0 0.0 0.0 0.0 0.3 0.0 0.0 0.0 0.0 0.0 0.0 0.0 0.0 0.0 0.0 0.0 0.0 0.0 0.0 0.0 0.0 0.0 0.0 0.0 0.0 0.0 0.0 0.0 0.0 0.0 0.0 0.0 0.0 0.0 0.0 0.0 0.0
0.0 0.0 0.0 0.0 0.0 0.0 0.0 0.0 0.5 1.1 2.6 1.3 0.0 0.2 0.0 0.0 0.0 0.0 0.0 0.0 0.0 0.0 0.0 0.0 0.0 0.0 0.0 0.0 0.0 0.0 0.0 0.0 0.0 0.0 0.0 0.0 0.0 0.0 0.0 0.0 0.0 0.0 0.0 0.0
0.0 0.0 0.0 0.0 0.0 0.0 0.0 0.0 1.1 4.3 3.1 1.1 0.2 0.5 0.0 0.0 0.0 0.0 0.0 0.0 0.0 0.0 0.0 0.0 0.0 0.0 0.0 0.0 0.0 0.0 0.0 0.0 0.0 0.0 0.0 0.0 0.0 0.0 0.0 0.0 0.0 0.0 0.0 0.0
0.0 0.0 0.0 0.0 0.0 0.0 0.0 0.0 0.0 0.7 5.7 4.6 0.1 0.0 0.0 0.0 0.0 0.0 0.0 0.0 0.0 0.0 0.0 0.0 0.0 0.0 0.0 0.0 0.0 0.0 0.0 0.0 0.0 0.0 0.0 0.0 0.0 0.0 0.0 0.0 0.0 0.0 0.0 0.0
0.0 0.1 0.0 0.0 0.0 0.0 0.0 0.0 0.6 0.6 6.4 4.8 0.0 0.0 0.0 0.0 0.0 0.0 0.0 0.0 0.0 0.0 0.0 0.0 0.0 0.0 0.0 0.0 0.0 0.0 0.0 0.0 0.0 0.0 0.0 0.0 0.0 0.0 0.0 0.0 0.0 0.0 0.0 0.0
0.0 0.0 0.0 0.0 0.0 0.0 0.0 0.0 0.0 0.0 0.7 4.0 3.5 0.4 0.0 0.0 0.0 0.0 0.0 0.0 0.0 0.0 0.0 0.0 0.0 0.0 0.0 0.0 0.0 0.0 0.0 0.0 0.0 0.0 0.0 0.0 0.0 0.0 0.0 0.0 0.0 0.0 0.0 0.0
0.0 0.0 0.9 0.0 0.0 0.0 0.0 0.0 0.0 1.4 1.0 1.1 2.8 1.8 0.0 0.0 0.0 0.0 0.0 0.0 0.0 0.0 0.0 0.0 0.0 0.0 0.0 0.0 0.0 0.0 0.0 0.0 0.0 0.0 0.0 0.0 0.0 0.0 0.0 0.0 0.0 0.0 0.0 0.0
0.0 0.4 2.5 1.0 0.1 0.0 0.1 0.0 0.0 0.0 0.5 2.2 6.0 1.6 0.0 0.0 0.0 0.0 0.0 0.0 0.0 0.0 0.0 0.0 0.0 0.0 0.0 0.0 0.0 0.0 0.0 0.0 0.0 0.0 0.0 0.0 0.0 0.0 0.0 0.0 0.0 0.1 0.1 0.1
nan 0.1 0.1 0.6 0.0 0.0 0.2 0.0 0.0 0.0 2.9 1.7 1.0 0.3 0.0 0.0 0.0 0.0 0.0 0.0 0.0 0.0 0.0 0.0 0.0 0.0 0.0 0.0 0.0 0.0 0.0 0.0 0.0 0.0 0.0 0.0 0.0 0.0 0.0 0.0 0.1 0.1 0.1 0.1
0.1 0.6 0.0 0.0 0.0 0.0 0.0 0.0 0.0 0.1 0.1 0.4 0.1 0.1 0.0 0.0 0.0 0.0 0.0 0.0 0.0 0.0 0.0 0.0 0.0 0.0 0.0 0.0 0.0 0.0 0.0 0.0 0.0 0.0 0.0 0.0 0.0 0.1 0.1 0.1 0.1 0.1 0.1 0.1
0.2 1.4 0.2 0.9 0.0 0.0 0.1 0.0 0.0 0.0 0.0 0.1 0.2 0.3 0.0 0.0 0.0 0.0 0.0 0.0 0.0 0.0 0.0 0.0 0.0 0.0 0.0 0.0 0.0 0.0 0.0 0.0 0.0 0.0 0.1 0.1 0.1 0.3 0.3 0.3 0.4 0.2 0.2 0.2
0.8 2.0 6.6 8.3 0.2 0.6 3.9 0.1 0.0 0.0 0.0 0.0 0.3 0.1 0.0 0.0 0.0 0.0 0.0 0.0 0.0 0.0 0.0 0.0 0.0 0.0 0.0 0.0 0.0 0.0 0.0 0.0 0.1 0.2 0.5 0.5 0.4 0.5 0.4 0.3 0.4 0.3 0.3 0.3
0.8 3.7 7.4 14.2 9.5 24.3 0.6 0.0 0.0 0.0 0.0 0.0 0.0 0.0 0.0 0.0 0.0 0.0 0.0 0.0 0.0 0.0 0.0 0.0 0.0 0.0 0.0 0.0 0.0 0.0 0.1 0.2 0.4 0.8 1.1 0.5 0.7 1.0 0.3 0.3 0.4 0.3 0.3 0.3
0.1 0.9 8.4 23.7 13.8 0.9 0.0 0.0 0.0 0.0 0.1 0.0 0.0 0.0 0.0 0.0 0.0 0.0 0.0 0.0 0.0 0.0 0.0 0.0 0.0 0.0 0.0 0.0 0.1 0.2 0.3 0.3 0.5 0.4 0.5 0.3 1.2 2.4 0.6 2.5 0.5 0.4 1.5 0.9
0.7 0.5 2.4 19.9 24.8 18.7 0.1 0.0 0.0 0.0 0.4 0.0 0.0 0.0 0.0 0.1 2.1 0.0 0.0 0.0 0.0 0.0 0.0 0.0 0.0 0.1 0.1 0.1 0.2 0.4 0.2 0.3 0.5 0.5 0.6 0.5 1.5 3.3 2.7 1.4 2.2 2.4 2.2 2.3
5.3 9.7 10.8 10.2 18.8 5.9 0.0 0.0 0.0 3.8 0.1 0.0 0.0 0.0 0.0 0.7 0.0 0.0 0.0 0.0 0.0 0.0 0.0 0.0 0.1 0.2 0.2 0.5 0.6 0.4 0.3 0.4 0.4 0.6 0.7 0.9 1.3 3.4 2.2 2.5 1.9 3.2 3.2 1.7
2.1 8.9 18.8 13.2 19.8 20.5 0.0 0.0 0.0 0.0 0.0 0.0 0.0 0.0 0.2 0.0 0.0 0.0 0.0 0.0 0.0 0.0 0.0 0.1 0.3 0.2 0.4 0.7 1.4 0.6 0.4 0.3 0.7 1.0 1.3 2.1 3.4 3.4 3.4 5.5 3.4 4.5 4.4 4.3
4.3 0.4 2.8 0.8 1.7 0.0 0.0 0.0 0.0 0.0 0.1 0.1 0.2 0.1 0.1 0.2 0.1 0.0 0.0 0.0 0.0 0.0 0.2 0.3 0.5 0.4 0.3 0.5 1.5 2.9 0.4 0.6 1.2 3.3 4.1 4.7 4.1 4.2 4.7 7.2 4.2 5.5 4.5 5.4
0.1 0.0 0.5 0.4 0.1 0.0 0.0 0.0 0.0 0.1 0.1 0.0 0.2 0.1 0.4 0.6 0.4 1.1 0.7 0.4 0.3 0.3 0.5 0.7 1.1 1.2 0.8 0.9 1.1 1.5 1.3 1.4 6.4 6.3 3.5 2.7 3.5 2.6 3.4 4.8 5.6 7.4 5.7 4.6
0.1 0.0 0.2 0.8 0.1 0.0 0.0 0.0 0.0 0.1 0.2 0.3 0.3 0.4 0.3 0.4 2.6 1.6 1.9 1.2 0.7 0.7 0.8 0.9 1.5 1.3 1.3 1.2 1.1 1.7 2.2 2.9 3.7 3.9 2.0 3.2 4.4 5.0 2.9 2.7 6.9 4.9 2.5 7.3
0.0 0.0 0.3 2.0 0.0 0.1 0.1 0.0 0.1 0.3 0.1 0.1 0.7 1.6 0.8 1.0 1.8 2.1 1.8 1.0 1.2 1.8 1.6 1.6 1.4 1.4 1.4 1.7 1.9 2.8 4.6 4.6 4.6 2.4 3.6 3.8 3.9 3.1 2.8 2.9 3.1 nan nan nan
Water_Equivalent
0.00 0.00 0.00 0.00 0.00 0.00 0.00 0.00 0.00 0.00 0.00 0.00 0.00 0.00 0.00 0.00 0.00 0.00 0.00 0.00 0.00 0.00 0.00 0.00 0.00 0.00 0.00 0.00 0.00 0.00 0.00 0.00 0.00 0.00 0.00 0.00 0.00 0.00 0.00 0.00 0.00 0.00 0.00 0.00
0.00 0.00 0.00 0.00 0.00 0.00 0.00 0.00 0.00 0.00 0.00 0.00 0.00 0.00 0.00 0.00 0.00 0.00 0.00 0.00 0.00 0.00 0.00 0.00 0.00 0.00 0.00 0.00 0.00 0.00 0.00 0.00 0.00 0.00 0.00 0.00 0.00 0.00 0.00 0.00 0.00 0.00 0.00 0.00
0.00 0.00 0.00 0.00 0.00 0.00 0.00 0.00 0.00 0.00 0.00 0.00 0.00 0.00 0.00 0.00 0.00 0.00 0.00 0.00 0.00 0.00 0.00 0.00 0.00 0.00 0.00 0.00 0.00 0.00 0.00 0.00 0.00 0.00 0.00 0.00 0.00 0.00 0.00 0.00 0.00 0.00 0.00 0.00
0.00 0.00 0.00 0.00 0.00 0.00 0.00 0.00 0.00 0.00 0.00 0.00 0.00 0.01 0.00 0.00 0.00 0.00 0.00 0.00 0.00 0.00 0.00 0.00 0.00 0.00 0.00 0.00 0.00 0.00 0.00 0.00 0.00 0.00 0.00 0.00 0.00 0.00 0.00 0.00 0.00 0.00 0.00 0.00
0.00 0.00 0.00 0.00 0.00 0.00 0.00 0.00 0.00 0.00 0.00 0.00 0.00 0.00 0.00 0.00 0.00 0.00 0.00 0.00 0.00 0.00 0.00 0.00 0.00 0.00 0.00 0.00 0.00 0.00 0.00 0.00 0.00 0.00 0.00 0.00 0.00 0.00 0.00 0.00 0.00 0.00 0.00 0.00
0.00 0.00 0.00 0.00 0.00 0.00 0.00 0.00 0.00 0.00 0.00 0.05 0.00 0.00 0.00 0.00 0.00 0.00 0.00 0.00 0.00 0.00 0.00 0.00 0.00 0.00 0.00 0.00 0.00 0.00 0.00 0.00 0.00 0.00 0.00 0.00 0.00 0.00 0.00 0.00 0.00 0.00 0.00 0.00
0.00 0.00 0.00 0.00 0.00 0.00 0.00 0.00 0.09 0.17 0.39 0.21 0.00 0.03 0.00 0.00 0.00 0.00 0.00 0.00 0.00 0.00 0.00 0.00 0.00 0.00 0.00 0.00 0.00 0.00 0.00 0.00 0.00 0.00 0.00 0.00 0.00 0.00 0.00 0.00 0.00 0.00 0.00 0.00
0.00 0.00 0.00 0.00 0.00 0.00 0.00 0.00 0.19 0.48 0.43 0.18 0.04 0.08 0.01 0.00 0.00 0.00 0.00 0.00 0.00 0.00 0.00 0.00 0.00 0.00 0.00 0.00 0.00 0.00 0.00 0.00 0.00 0.00 0.00 0.00 0.00 0.00 0.00 0.00 0.00 0.00 0.00 0.00
0.00 0.00 0.00 0.00 0.00 0.00 0.00 0.00 0.00 0.11 0.63 0.59 0.02 0.00 0.00 0.00 0.00 0.00 0.00 0.00 0.00 0.00 0.00 0.00 0.00 0.00 0.00 0.00 0.00 0.00 0.00 0.00 0.00 0.00 0.00 0.00 0.00 0.00 0.00 0.00 0.00 0.00 0.00 0.00
0.00 0.01 0.00 0.00 0.00 0.00 0.00 0.00 0.09 0.11 0.75 0.54 0.00 0.00 0.00 0.00 0.00 0.00 0.00 0.00 0.00 0.00 0.00 0.00 0.00 0.00 0.00 0.00 0.00 0.00 0.00 0.00 0.00 0.00 0.00 0.00 0.00 0.00 0.00 0.00 0.00 0.00 0.00 0.00
0.00 0.00 0.01 0.00 0.00 0.00 0.00 0.00 0.00 0.00 0.12 0.51 0.42 0.05 0.00 0.00 0.00 0.00 0.00 0.00 0.00 0.00 0.00 0.00 0.00 0.00 0.00 0.00 0.00 0.00 0.00 0.00 0.00 0.00 0.00 0.00 0.00 0.00 0.00 0.00 0.00 0.00 0.00 0.00
0.00 0.00 0.15 0.00 0.00 0.00 0.00 0.00 0.00 0.22 0.14 0.16 0.38 0.22 0.00 0.00 0.00 0.00 0.00 0.00 0.00 0.00 0.00 0.00 0.00 0.00 0.00 0.00 0.00 0.00 0.00 0.00 0.00 0.00 0.00 0.00 0.00 0.00 0.00 0.00 0.00 0.00 0.00 0.00
0.00 0.09 0.55 0.30 0.02 0.00 0.01 0.00 0.00 0.00 0.08 0.32 0.78 0.22 0.00 0.00 0.00 0.00 0.00 0.00 0.00 0.00 0.00 0.00 0.00 0.00 0.00 0.00 0.00 0.00 0.00 0.00 0.00 0.00 0.00 0.00 0.00 0.00 0.00 0.00 0.00 0.01 0.01 0.01
nan 0.01 0.03 0.13 0.01 0.00 0.04 0.00 0.00 0.01 0.46 0.33 0.18 0.06 0.00 0.00 0.00 0.00 0.00 0.00 0.00 0.00 0.00 0.00 0.00 0.00 0.00 0.00 0.00 0.00 0.00 0.00 0.00 0.00 0.00 0.00 0.00 0.00 0.00 0.01 0.02 0.02 0.02 0.02
0.01 0.09 0.01 0.01 0.00 0.00 0.00 0.00 0.00 0.02 0.01 0.06 0.02 0.01 0.00 0.00 0.00 0.00 0.00 0.00 0.00 0.00 0.00 0.00 0.00 0.00 0.00 0.00 0.00 0.00 0.00 0.00 0.00 0.00 0.00 0.00 0.00 0.01 0.02 0.02 0.03 0.02 0.02 0.02
0.03 0.28 0.05 0.23 0.00 0.00 0.01 0.00 0.00 0.00 0.01 0.01 0.04 0.07 0.00 0.00 0.00 0.00 0.00 0.00 0.00 0.01 0.00 0.00 0.00 0.00 0.00 0.00 0.00 0.00 0.00 0.00 0.01 0.01 0.02 0.02 0.03 0.05 0.05 0.05 0.08 0.04 0.04 0.04
0.12 0.44 0.92 1.18 0.03 0.07 0.49 0.03 0.00 0.00 0.00 0.00 0.11 0.03 0.00 0.00 0.01 0.00 0.01 0.00 0.01 0.00 0.00 0.00 0.00 0.00 0.00 0.00 0.00 0.00 0.00 0.01 0.03 0.04 0.09 0.10 0.07 0.10 0.06 0.06 0.07 0.06 0.05 0.06
0.10 0.52 1.04 1.91 1.22 2.51 0.14 0.00 0.00 0.00 0.00 0.00 0.00 0.00 0.00 0.00 0.00 0.00 0.00 0.00 0.00 0.00 0.00 0.00 0.00 0.00 0.00 0.00 0.00 0.01 0.02 0.04 0.06 0.13 0.20 0.09 0.12 0.15 0.05 0.05 0.06 0.05 0.04 0.05
0.03 0.14 1.09 2.65 1.67 0.18 0.01 0.00 0.00 0.00 0.01 0.00 0.00 0.00 0.00 0.00 0.00 0.00 0.00 0.00 0.00 0.00 0.00 0.00 0.00 0.00 0.00 0.00 0.01 0.03 0.05 0.05 0.07 0.07 0.08 0.05 0.19 0.33 0.09 0.36 0.07 0.05 0.23 0.15
0.11 0.08 0.40 2.36 2.66 1.96 0.02 0.00 0.00 0.00 0.06 0.00 0.00 0.00 0.00 0.01 0.17 0.01 0.00 0.00 0.00 0.00 0.00 0.00 0.00 0.01 0.02 0.02 0.03 0.05 0.03 0.04 0.06 0.06 0.07 0.06 0.20 0.44 0.35 0.20 0.30 0.37 0.36 0.35
0.60 1.13 1.26 1.30 2.16 0.82 0.00 0.00 0.00 0.43 0.03 0.00 0.00 0.00 0.01 0.07 0.01 0.00 0.00 0.00 0.00 0.00 0.00 0.00 0.02 0.02 0.02 0.05 0.07 0.05 0.03 0.04 0.04 0.05 0.06 0.10 0.16 0.46 0.30 0.35 0.31 0.43 0.47 0.25
0.21 0.90 2.00 1.44 2.06 2.21 0.01 0.00 0.00 0.00 0.00 0.00 0.00 0.00 0.02 0.01 0.00 0.00 0.00 0.00 0.00 0.00 0.00 0.01 0.04 0.03 0.04 0.08 0.14 0.07 0.06 0.03 0.06 0.10 0.13 0.29 0.48 0.46 0.48 0.84 0.51 0.70 0.64 0.62
0.49 0.05 0.36 0.12 0.32 0.00 0.00 0.00 0.00 0.00 0.01 0.02 0.03 0.01 0.01 0.02 0.01 0.00 0.00 0.00 0.00 0.00 0.03 0.04 0.06 0.05 0.04 0.06 0.15 0.26 0.04 0.06 0.13 0.51 0.71 0.72 0.63 0.63 0.66 1.02 0.59 0.84 0.72 0.86
0.02 0.00 0.12 0.08 0.02 0.00 0.00 0.00 0.00 0.01 0.02 0.01 0.03 0.02 0.05 0.04 0.03 0.14 0.10 0.05 0.03 0.04 0.06 0.08 0.13 0.14 0.09 0.10 0.12 0.13 0.12 0.16 1.12 1.04 0.50 0.38 0.51 0.39 0.50 0.73 0.86 1.21 0.91 0.72
0.03 0.01 0.06 0.17 0.02 0.02 0.01 0.00 0.00 0.03 0.03 0.05 0.05 0.05 0.02 0.03 0.26 0.18 0.18 0.13 0.07 0.07 0.09 0.10 0.15 0.12 0.13 0.11 0.10 0.16 0.19 0.35 0.59 0.63 0.27 0.47 0.70 0.81 0.44 0.37 0.70 0.55 0.30 0.86
0.00 0.01 0.05 0.26 0.01 0.02 0.03 0.01 0.02 0.04 0.02 0.02 0.08 0.15 0.09 0.13 0.15 0.16 0.16 0.09 0.10 0.15 0.14 0.15 0.13 0.12 0.10 0.14 0.16 0.25 0.52 0.54 0.57 0.31 0.52 0.54 0.55 0.48 0.42 0.41 0.38 nan nan nan
SL_Ratio
nan nan nan nan nan nan nan nan nan nan nan nan nan nan nan nan nan nan nan nan nan nan nan nan nan nan nan nan nan nan nan nan nan nan nan nan nan nan nan nan nan nan nan nan
nan nan nan nan nan nan nan nan nan nan nan nan nan nan nan nan nan nan nan nan nan nan nan nan nan nan nan nan nan nan nan nan nan nan nan nan nan nan nan nan nan nan nan nan
nan nan nan nan nan nan nan nan nan nan nan nan nan nan nan nan nan nan nan nan nan nan nan nan nan nan nan nan nan nan nan nan nan nan nan nan nan nan nan nan nan nan nan nan
nan nan nan nan nan nan nan nan nan nan nan nan nan 6.5 nan nan nan nan nan nan nan nan nan nan nan nan nan nan nan nan nan nan nan nan nan nan nan nan nan nan nan nan nan nan
nan nan nan nan nan nan nan nan nan nan nan nan nan nan nan nan nan nan nan nan nan nan nan nan nan nan nan nan nan nan nan nan nan nan nan nan nan nan nan nan nan nan nan nan
nan nan nan nan nan nan nan nan nan nan nan 6.3 nan nan nan nan nan nan nan nan nan nan nan nan nan nan nan nan nan nan nan nan nan nan nan nan nan nan nan nan nan nan nan nan
nan nan nan nan nan nan nan nan 6.0 6.3 6.7 6.3 nan 6.0 nan nan nan nan nan nan nan nan nan nan nan nan nan nan nan nan nan nan nan nan nan nan nan nan nan nan nan nan nan nan
nan 0.0 nan nan nan nan nan nan 5.9 8.9 7.3 6.3 6.1 6.7 4.4 nan nan nan nan nan nan nan nan nan nan nan nan nan nan nan nan nan nan nan nan nan nan nan nan nan nan nan nan nan
5.0 5.0 nan nan nan nan nan nan nan 6.4 9.1 7.7 5.3 nan nan nan nan nan nan nan nan nan nan nan nan nan nan nan nan nan nan nan nan nan nan nan nan nan nan nan nan nan nan nan
nan 4.9 nan nan nan nan nan nan 6.2 5.9 8.6 8.8 6.7 5.0 nan nan nan nan nan nan nan nan nan nan nan nan nan nan nan nan nan nan nan nan nan nan nan nan nan nan nan nan nan nan
nan 6.0 2.4 5.0 6.7 nan nan nan nan 5.0 6.0 8.0 8.4 7.2 nan nan nan nan nan nan nan nan nan nan nan nan nan nan nan nan nan nan nan nan nan nan nan nan nan nan nan nan nan nan
nan nan 5.6 6.2 nan nan nan nan nan 6.5 7.2 6.7 7.3 8.3 nan nan nan nan nan nan nan nan nan nan nan nan nan nan nan nan nan nan nan nan nan nan nan nan nan nan nan nan nan 4.7
nan 4.7 4.6 3.5 3.5 0.0 7.1 nan nan nan 5.8 6.8 7.7 7.1 nan nan nan nan nan nan nan nan nan nan nan nan nan nan nan nan nan nan nan nan nan nan nan nan nan nan 3.8 4.6 4.8 4.8
nan 4.4 3.6 4.4 3.8 nan 6.2 nan nan 4.0 6.3 5.2 5.6 4.6 nan nan nan nan nan nan nan nan nan nan nan nan nan nan nan nan nan nan nan nan nan nan nan nan 5.0 5.5 5.1 4.7 4.7 5.1
4.1 6.3 3.6 2.7 nan nan 5.0 5.3 4.0 4.8 4.7 7.0 4.8 5.4 nan nan nan nan nan nan nan nan nan nan nan nan nan nan nan nan nan nan nan nan nan nan 4.6 4.9 4.9 4.9 5.2 5.3 5.4 5.6
6.2 5.1 4.5 4.0 2.7 nan 4.8 nan nan 5.0 5.4 3.9 4.1 4.0 nan nan nan nan nan nan 3.6 3.1 nan nan nan nan nan nan nan nan nan nan 5.6 5.2 5.1 5.2 4.9 5.1 5.3 5.4 5.6 5.8 5.6 5.6
6.5 4.5 7.1 7.0 6.1 8.5 8.1 4.4 5.0 5.0 nan 0.0 3.0 2.6 nan 5.0 4.4 4.0 4.4 2.5 3.0 nan nan nan nan nan nan nan nan 15.0 10.0 5.0 5.3 6.0 5.4 5.3 5.5 5.7 5.7 5.5 5.6 5.6 5.4 5.3
7.8 7.0 7.1 7.4 7.8 9.7 4.2 nan nan nan nan nan nan nan nan 4.2 nan nan nan nan nan nan nan nan nan 10.0 nan nan 10.0 5.6 5.6 5.9 6.3 5.9 5.4 5.8 6.1 6.5 5.9 5.9 5.9 6.3 6.6 6.3
4.6 6.5 7.6 8.9 8.3 5.1 3.6 nan nan 6.9 6.7 nan nan nan nan nan 7.5 nan nan nan nan nan nan nan nan nan 10.0 7.9 6.3 7.4 6.8 6.5 6.5 6.1 6.5 6.0 6.6 7.2 7.2 6.8 7.2 7.9 6.5 6.0
6.5 5.9 6.0 8.5 9.3 9.5 5.1 nan nan nan 7.0 nan nan nan nan 6.9 12.6 8.2 nan nan nan nan nan nan 10.0 6.1 7.1 7.3 7.6 7.3 8.1 7.7 8.0 8.2 8.3 8.2 7.5 7.4 7.7 6.9 7.1 6.3 6.1 6.5
8.8 8.6 8.6 7.8 8.7 7.2 5.0 10.0 nan 8.8 4.7 nan nan nan 6.0 9.7 6.5 10.0 nan nan nan nan nan nan 6.2 8.1 9.3 9.8 8.9 8.5 7.8 9.9 10.5 11.3 10.8 9.0 8.1 7.3 7.6 7.2 6.3 7.5 6.9 6.8
9.9 10.0 9.4 9.1 9.6 9.3 2.5 nan 9.1 6.7 nan nan 10.0 5.7 8.3 7.8 6.7 nan nan nan nan 10.0 nan 7.4 8.7 7.9 9.0 8.6 10.5 9.0 7.8 9.5 10.8 10.3 9.8 7.4 7.0 7.2 7.0 6.6 6.7 6.5 7.0 6.9
8.7 7.7 7.6 7.2 5.4 2.0 nan nan nan nan 4.7 5.4 6.0 8.3 9.1 10.8 10.4 12.9 15.0 nan 16.7 15.0 6.7 7.1 8.5 8.0 7.3 8.4 10.1 11.5 9.7 10.0 8.9 6.5 5.8 6.5 6.6 6.6 7.2 7.1 7.2 6.5 6.3 6.3
5.3 10.0 4.3 4.6 3.8 3.3 5.0 5.0 3.3 4.4 4.8 5.8 5.7 7.5 8.3 14.9 13.1 7.6 7.4 8.7 8.3 7.6 8.7 9.0 8.7 8.3 9.3 8.8 9.1 11.5 11.3 8.9 5.7 6.1 6.9 7.0 6.9 6.7 6.9 6.5 6.5 6.2 6.2 6.4
3.0 3.3 4.2 4.4 2.6 2.5 3.3 5.0 nan 5.1 5.6 6.4 6.9 7.2 11.1 12.3 10.0 8.8 10.6 9.5 10.5 9.8 9.4 9.0 9.8 10.9 10.7 11.4 10.9 10.9 11.4 8.1 6.3 6.1 7.3 6.9 6.2 6.3 6.7 7.2 9.9 8.9 8.3 8.5
2.9 4.4 5.9 7.5 4.2 4.4 4.9 4.0 4.4 5.8 6.4 6.3 8.6 10.8 9.0 7.7 11.9 13.3 11.7 11.2 11.3 12.1 11.2 10.8 10.5 11.6 13.5 12.3 11.4 11.5 8.8 8.5 8.1 7.6 7.0 7.1 7.2 6.5 6.6 7.1 8.1 nan nan nan